Date,TemperatureHighF,TemperatureAvgF,TemperatureLowF,DewpointHighF,DewpointAvgF,DewpointLowF,HumidityHigh,HumidityAvg,HumidityLow,PressureMaxIn,PressureMinIn,WindSpeedMaxMPH,WindSpeedAvgMPH,GustSpeedMaxMPH,PrecipitationSumIn
2013-1-1,38.8,31.4,27.4,35.7,30.4,26.7,98,96,86,30.49,30.34,1,0,4,0.00
2013-1-2,44.6,31.5,25.3,34.6,27.4,24.3,98,87,49,30.35,30.19,5,0,19,0.01
2013-1-3,44.4,32.4,23.1,35.4,26.4,21.6,96,81,42,30.19,30.07,8,1,23,0.15
2013-1-4,47.5,41.0,36.5,45.1,39.9,35.5,98,96,89,30.30,30.15,3,0,11,0.01
2013-1-5,42.9,39.5,37.3,40.6,37.8,36.1,98,94,84,30.18,30.08,2,0,7,0.12
2013-1-6,44.4,40.7,38.6,40.9,39.3,37.6,97,95,86,30.16,29.98,4,0,14,0.38
2013-1-7,48.2,43.4,39.5,48.0,42.9,38.7,99,98,97,30.14,29.80,14,1,16,0.80
2013-1-8,49.7,44.5,40.0,49.2,44.0,39.5,99,98,96,30.14,29.70,14,3,33,0.60
2013-1-9,49.6,38.6,32.9,48.5,37.9,32.1,98,97,95,29.93,29.65,17,3,31,1.55
2013-1-10,36.1,32.4,28.8,36.0,31.8,28.1,98,98,97,30.10,29.92,6,0,1,0.09
2013-1-11,33.7,29.2,26.1,32.0,28.4,25.0,98,97,92,30.32,30.09,4,0,3,0.00
2013-1-12,35.4,27.1,21.4,30.3,24.8,20.0,97,91,75,30.44,30.30,3,0,5,0.00
2013-1-13,33.7,26.6,18.5,30.2,24.4,16.8,96,92,77,30.49,30.43,3,0,6,0.01
2013-1-14,33.1,31.4,29.5,32.2,30.4,28.1,97,96,95,30.56,30.46,4,0,9,0.02
2013-1-15,40.4,32.6,26.9,38.0,31.5,25.8,98,96,84,30.69,30.56,1,0,3,0.00
2013-1-16,41.2,29.0,23.3,36.8,27.7,22.1,98,95,83,30.67,30.51,3,0,7,0.01
2013-1-17,40.0,29.7,25.8,37.6,28.7,24.8,98,96,88,30.52,30.28,5,0,9,0.00
2013-1-18,32.5,28.3,23.4,31.7,27.4,22.2,97,97,95,30.34,30.25,3,0,6,0.00
2013-1-19,32.3,29.8,26.7,31.5,29.1,26.0,98,97,97,30.38,30.33,1,0,3,0.00
2013-1-20,34.9,30.1,26.9,34.4,29.4,26.2,98,97,97,30.39,30.26,1,0,4,0.00
2013-1-21,31.7,29.1,26.5,31.0,28.5,26.0,98,98,97,30.26,30.12,3,0,0,0.01
2013-1-22,36.7,29.2,21.9,36.0,28.5,21.0,98,97,95,30.14,29.89,0,0,0,0.00
2013-1-23,40.0,36.5,32.8,40.0,36.2,32.0,99,98,98,30.12,29.82,5,0,0,0.52
2013-1-24,42.8,39.1,35.7,41.0,38.4,35.0,99,97,89,30.20,30.02,5,0,0,0.37
2013-1-25,49.6,41.2,32.1,46.0,40.0,31.3,99,96,85,30.04,29.91,4,0,7,0.01
2013-1-26,39.9,37.1,33.5,39.4,36.6,32.6,98,98,97,30.01,29.86,1,0,7,0.93
2013-1-27,40.5,38.1,36.1,40.2,37.6,35.6,99,98,98,30.03,29.97,3,0,11,0.61
2013-1-28,37.7,36.9,36.4,37.2,36.4,35.9,98,98,98,29.99,29.98,1,0,4,0.09
2013-2-2,39.9,37.9,36.0,39.0,37.4,35.5,98,98,97,30.27,30.24,2,0,6,0.06
2013-2-3,46.8,42.0,35.5,44.7,41.3,35.0,99,97,90,30.29,30.18,3,0,9,0.16
2013-2-4,49.1,44.0,41.9,45.3,42.8,41.0,99,96,83,30.19,29.86,3,0,7,0.00
2013-2-5,49.2,44.6,41.1,44.6,42.4,40.3,98,92,77,29.91,29.81,10,2,24,0.12
2013-2-6,47.2,44.2,41.6,42.1,40.5,38.8,94,87,73,30.02,29.77,6,1,20,0.06
2013-2-7,47.6,40.4,30.0,41.5,37.0,29.0,97,88,67,30.18,29.78,13,1,25,0.22
2013-2-8,42.8,34.6,26.6,38.3,32.7,25.5,97,93,79,30.29,30.18,1,0,4,0.00
2013-2-9,41.8,39.0,37.1,41.0,38.2,36.0,98,97,95,30.32,30.24,0,0,2,0.10
2013-2-10,46.9,37.6,30.4,41.2,35.5,29.7,98,93,74,30.36,30.30,6,1,11,0.00
2013-2-11,42.5,40.0,37.7,41.0,39.0,37.0,97,96,94,30.34,30.31,4,0,0,0.06
2013-2-12,47.6,44.0,40.0,45.0,42.9,39.0,98,96,90,30.39,30.26,9,0,0,0.00
2013-2-13,47.4,44.0,41.1,45.0,42.6,40.0,98,95,85,30.48,30.28,3,0,0,0.09
2013-2-14,48.2,44.2,40.6,44.5,42.5,39.7,98,94,84,30.54,30.47,3,0,10,0.08
2013-2-15,56.4,41.8,32.5,47.3,39.1,31.6,98,91,67,30.53,30.15,4,0,8,0.00
2013-2-16,45.0,40.4,32.6,44.5,39.5,31.7,98,96,88,30.18,30.10,3,0,11,0.55
2013-2-17,43.3,39.3,33.3,40.1,37.8,32.3,98,94,86,30.23,30.10,5,0,14,0.07
2013-2-18,45.4,37.1,31.0,38.9,34.7,30.0,98,91,75,30.10,29.75,5,0,11,0.00
2013-2-19,51.6,38.9,29.8,37.8,34.1,28.5,97,84,53,29.99,29.73,5,1,14,0.00
2013-2-20,44.2,36.1,29.0,39.3,34.3,27.7,97,93,78,30.03,29.98,4,0,14,0.02
2013-2-21,40.7,38.9,35.9,40.0,38.1,35.1,98,97,95,30.05,29.99,3,0,11,0.12
2013-2-22,44.8,39.4,32.9,42.0,37.9,32.1,97,95,88,30.03,29.65,14,2,28,0.48
2013-2-23,46.4,38.2,33.3,41.0,35.9,32.5,98,92,71,30.36,29.88,6,1,17,0.51
2013-2-24,45.5,41.5,35.2,39.2,37.3,34.2,97,85,76,30.36,29.93,6,1,20,0.02
2013-2-25,50.9,42.0,38.7,41.8,37.5,30.0,97,85,49,30.29,29.87,11,2,20,0.14
2013-2-26,46.5,39.9,30.4,38.2,33.9,29.1,97,80,60,30.34,30.18,7,0,16,0.03
2013-2-27,50.0,42.4,39.4,43.0,39.3,35.9,97,90,59,30.29,30.19,12,0,17,0.35
2013-2-28,50.9,42.8,39.3,50.0,42.2,38.4,98,97,96,30.29,30.17,8,0,21,0.47
2013-3-1,56.1,53.4,50.7,50.5,49.7,47.5,97,87,80,30.33,30.24,13,4,32,0.01
2013-3-2,56.2,47.9,36.2,48.4,43.7,34.8,96,86,72,30.25,30.04,14,2,29,0.38
2013-3-3,47.4,36.7,30.0,41.0,35.3,29.0,98,95,71,30.30,30.17,3,0,8,0.15
2013-3-4,53.6,36.8,26.2,37.0,31.1,25.0,97,82,40,30.29,29.92,2,0,2,0.00
2013-3-5,54.1,41.3,31.5,39.8,34.9,29.3,92,79,45,29.92,29.71,6,0,13,0.00
2013-3-6,43.0,39.2,34.3,41.7,38.0,32.6,97,95,89,29.88,29.57,2,0,8,0.49
2013-3-7,47.1,38.6,32.0,46.0,37.7,30.9,98,97,93,30.09,29.88,0,0,5,0.31
2013-3-8,53.6,37.7,28.6,45.1,34.6,27.9,98,89,63,30.23,30.07,4,1,10,0.00
2013-3-9,55.8,38.1,27.4,42.3,33.8,26.4,98,86,56,30.48,30.23,6,1,14,0.00
2013-3-10,47.7,40.2,31.1,41.3,37.0,29.8,97,89,71,30.48,30.41,5,0,14,0.01
2013-3-11,54.4,43.6,32.9,44.2,38.6,31.9,97,84,56,30.43,30.14,9,1,17,0.01
2013-3-12,52.6,49.7,46.1,49.4,47.8,43.0,98,93,83,30.14,30.03,9,1,20,0.56
2013-3-13,51.8,50.1,49.2,51.0,49.2,48.0,98,97,92,30.18,30.07,4,0,20,0.38
2013-3-14,52.6,49.6,47.6,51.2,48.0,44.5,98,94,84,30.13,30.00,6,0,14,0.03
2013-3-15,59.2,51.9,47.9,50.8,47.9,45.4,96,87,69,30.19,30.11,8,2,17,0.01
2013-3-16,51.1,43.8,35.1,46.7,41.6,34.1,97,92,74,30.11,29.86,13,2,28,0.40
2013-3-17,45.5,40.1,35.4,40.0,36.5,34.0,97,87,66,30.17,29.95,11,1,15,0.15
2013-3-18,53.2,41.9,34.5,40.5,35.2,28.3,97,79,43,30.24,30.09,8,2,21,0.13
2013-3-19,54.5,40.8,30.8,41.0,33.7,27.3,96,79,37,30.23,29.59,3,1,15,0.15
2013-3-20,50.9,43.3,34.7,47.7,41.4,33.6,97,93,71,30.00,29.37,25,3,40,0.92
2013-3-21,43.7,38.2,34.4,40.8,35.3,31.7,97,90,74,30.19,29.99,6,1,15,0.00
2013-3-22,47.3,36.7,29.8,36.8,32.5,28.2,97,86,51,30.36,30.19,7,1,16,0.00
2013-3-23,51.9,37.7,29.2,34.4,29.7,25.8,96,76,40,30.39,30.29,7,1,17,0.00
2013-3-24,58.6,39.8,27.8,36.6,30.8,26.5,96,74,31,30.30,30.11,6,0,20,0.00
2013-3-25,63.1,42.9,28.3,39.0,31.8,27.0,96,71,32,30.13,29.92,12,1,0,0.00
2013-3-26,61.4,46.2,34.4,43.0,37.2,33.0,94,74,44,29.99,29.94,10,1,0,0.00
2013-3-27,57.0,46.8,39.0,47.0,41.4,38.0,96,83,61,29.98,29.92,5,0,0,0.00
2013-3-28,63.4,49.3,36.8,49.4,43.2,35.5,97,81,55,30.13,29.98,13,1,18,0.01
2013-3-29,65.7,49.3,36.7,48.2,42.7,35.7,98,80,50,30.24,30.13,7,1,15,0.00
2013-3-30,69.8,49.0,32.8,47.7,40.9,31.5,97,77,39,30.25,30.07,5,1,11,0.00
2013-3-31,71.8,50.6,33.8,49.4,42.1,32.5,97,77,39,30.07,29.88,5,1,14,0.00
2013-4-1,63.4,49.2,36.5,50.1,44.4,35.2,97,85,60,30.14,29.95,9,2,16,0.00
2013-4-2,54.1,51.1,47.6,48.5,47.0,45.1,93,86,77,30.18,30.14,5,0,12,0.00
2013-4-3,64.6,51.8,44.1,48.5,45.7,42.8,96,81,51,30.17,29.93,6,1,14,0.00
2013-4-4,55.8,50.9,46.4,54.4,48.9,44.8,97,93,84,29.93,29.61,4,0,16,0.05
2013-4-5,57.6,51.5,47.4,50.9,48.7,45.8,97,90,72,29.85,29.70,14,4,33,0.11
2013-4-6,52.1,47.9,44.6,46.7,44.1,40.2,95,87,72,29.90,29.68,13,2,24,0.20
2013-4-7,44.6,42.4,39.9,43.3,40.8,38.3,96,94,85,29.86,29.48,7,1,14,1.13
2013-4-8,53.3,45.4,41.7,47.4,43.1,40.3,97,92,73,30.26,29.88,2,0,5,0.22
2013-4-9,54.0,48.1,41.4,47.2,43.5,40.3,97,85,69,30.33,30.16,6,1,13,0.00
2013-4-10,56.5,50.6,46.7,50.0,44.8,40.6,94,81,64,30.24,29.89,13,2,27,0.19
2013-4-11,53.4,46.0,36.6,43.9,40.6,34.7,96,82,59,30.28,30.18,6,1,14,0.20
2013-4-12,47.6,40.1,35.0,41.4,38.0,33.5,97,92,72,30.18,29.66,9,1,21,0.40
2013-4-13,45.9,40.9,37.3,44.5,38.5,32.5,96,91,74,29.97,29.72,6,1,16,0.36
2013-4-14,53.9,42.9,36.8,44.8,38.9,35.3,97,87,56,30.00,29.90,3,0,9,0.23
2013-4-15,54.2,43.3,35.6,42.7,39.1,34.3,97,86,60,30.17,29.93,4,1,13,0.20
2013-4-16,57.9,42.5,30.5,43.5,36.1,29.4,97,81,41,30.39,30.17,7,1,15,0.03
2013-4-17,60.1,45.6,32.2,42.5,37.2,30.9,97,75,41,30.44,30.38,7,2,16,0.01
2013-4-18,49.4,45.9,42.9,46.2,42.7,39.5,97,89,75,30.43,30.20,4,0,11,0.35
2013-4-19,52.9,49.2,47.0,51.6,48.2,46.2,98,97,93,30.20,30.04,3,1,11,0.74
2013-4-20,56.4,48.3,46.0,50.8,46.4,44.8,97,93,75,30.26,30.17,4,0,10,0.54
2013-4-21,54.2,46.4,37.3,48.2,43.7,36.0,97,91,67,30.36,30.22,4,0,14,0.41
2013-4-22,62.8,44.9,30.8,41.0,34.4,30.0,97,72,32,30.52,30.36,7,1,0,0.00
2013-4-23,65.3,46.5,31.2,43.0,36.1,29.7,96,72,31,30.42,30.23,11,1,14,0.00
2013-4-24,71.1,50.2,32.7,44.1,37.9,31.0,97,69,25,30.31,30.05,12,1,15,0.00
2013-4-25,73.3,53.6,35.9,47.8,40.7,34.3,96,67,31,30.12,30.03,6,1,13,0.00
2013-4-26,68.3,53.4,39.3,51.1,46.1,37.7,96,78,53,30.23,30.12,5,1,14,0.00
2013-4-27,54.9,51.1,47.7,49.3,45.7,40.0,95,82,59,30.20,30.13,11,1,23,0.34
2013-4-28,55.3,49.7,45.9,48.2,45.8,42.7,96,87,71,30.20,29.92,7,1,20,0.15
2013-4-29,57.3,47.8,41.3,45.6,36.4,29.4,94,67,36,30.14,29.90,9,3,21,0.18
2013-4-30,56.7,45.1,34.4,43.2,35.0,23.8,94,70,31,30.43,30.14,10,1,15,0.14
2013-5-1,66.4,47.0,29.8,42.4,35.3,28.0,96,68,35,30.57,30.44,6,1,15,0.01
2013-5-2,67.7,47.6,36.5,46.0,39.8,34.7,96,77,42,30.54,30.35,10,0,6,0.00
2013-5-3,71.8,53.5,36.4,51.7,43.7,34.8,96,73,42,30.38,30.21,5,1,15,0.00
2013-5-4,79.8,58.0,38.5,52.5,44.9,36.8,97,68,29,30.24,29.99,6,1,16,0.00
2013-5-5,84.8,62.2,42.2,55.8,48.4,40.6,96,66,32,29.99,29.75,6,1,13,0.00
2013-5-6,86.6,64.4,44.7,57.9,49.3,42.9,96,64,27,29.84,29.72,6,1,13,0.00
2013-5-7,73.5,58.2,45.8,56.1,50.7,43.9,96,78,50,29.98,29.80,5,1,13,0.00
2013-5-8,69.0,54.7,45.6,57.3,50.1,43.8,95,85,61,30.13,29.98,4,0,9,0.00
2013-5-9,71.1,57.6,44.0,57.0,49.9,43.0,97,78,47,30.21,30.09,9,1,12,0.00
2013-5-10,77.7,62.5,43.3,59.0,52.5,42.0,97,73,41,30.19,30.09,5,1,11,0.00
2013-5-11,83.9,64.8,50.1,62.4,52.8,48.3,95,69,37,30.16,29.97,8,1,16,0.00
2013-5-12,69.2,61.6,56.5,60.3,56.6,52.3,97,85,61,30.07,29.97,8,1,18,0.18
2013-5-13,61.9,56.0,46.5,58.7,52.2,44.1,95,88,61,30.17,29.90,16,2,33,0.32
2013-5-14,68.4,53.9,45.5,48.5,44.1,39.9,94,72,39,30.21,30.10,5,1,13,0.00
2013-5-15,66.5,49.5,41.0,50.0,43.8,39.0,95,83,46,30.11,29.99,9,1,0,0.08
2013-5-16,71.7,59.3,51.2,55.0,52.2,49.8,96,79,54,30.01,29.84,9,1,14,0.03
2013-5-17,58.3,55.0,52.3,54.2,51.3,49.2,95,88,75,30.03,29.92,6,0,13,0.08
2013-5-18,60.7,55.3,51.5,52.1,48.8,44.9,91,79,60,30.26,30.03,6,1,14,0.00
2013-5-19,65.8,54.8,47.9,57.8,49.8,45.4,95,84,58,30.39,30.26,5,0,13,0.05
2013-5-20,70.9,53.4,41.3,53.3,46.9,40.0,97,80,48,30.33,29.88,7,1,10,0.00
2013-5-21,54.1,49.1,46.5,51.9,47.0,45.1,96,93,81,29.89,29.77,4,0,11,0.79
2013-5-22,51.1,47.2,44.3,48.6,45.3,42.6,96,93,87,29.93,29.83,5,1,11,0.09
2013-5-23,60.2,48.5,42.6,51.4,45.3,41.5,96,89,62,30.00,29.91,9,1,22,0.06
2013-5-24,65.2,51.6,41.1,53.8,46.0,39.8,97,82,57,30.03,29.96,3,0,8,0.00
2013-5-25,67.3,55.3,48.7,52.1,47.6,44.2,95,77,45,30.03,29.96,6,1,14,0.03
2013-5-26,62.4,54.5,48.4,58.3,51.3,46.6,95,89,74,29.98,29.93,4,0,12,0.05
2013-5-27,60.2,55.0,50.5,56.3,52.9,49.1,96,92,80,29.94,29.70,1,0,9,0.01
2013-5-28,64.1,55.8,51.3,53.9,51.0,48.8,96,84,62,29.86,29.75,8,1,15,0.00
2013-5-29,54.0,51.7,49.7,50.9,49.3,48.3,96,91,86,29.95,29.66,3,0,9,0.49
2013-5-30,60.6,52.9,47.7,53.0,49.0,47.0,97,87,66,30.23,29.95,9,1,0,0.10
2013-5-31,68.0,57.6,47.4,50.5,47.3,43.0,94,71,42,30.33,30.23,6,1,14,0.01
2013-6-1,73.0,58.3,46.3,54.2,48.8,44.1,95,73,46,30.24,30.03,6,1,13,0.02
2013-6-2,70.8,58.6,50.1,55.1,51.0,47.8,95,78,49,30.08,30.02,5,1,13,0.04
2013-6-3,73.5,58.3,44.5,56.4,50.8,42.9,97,78,51,30.10,30.04,6,1,13,0.00
2013-6-4,80.9,62.4,45.6,60.1,52.6,44.0,97,74,40,30.12,30.00,6,1,13,0.00
2013-6-5,76.4,61.6,47.9,61.3,53.6,45.7,95,77,53,30.08,30.01,6,1,14,0.00
2013-6-6,78.2,62.5,47.8,59.8,51.3,44.6,96,70,36,30.04,29.99,5,1,13,0.00
2013-6-7,65.8,58.8,50.8,54.1,48.9,43.6,87,71,50,30.15,30.00,6,1,15,0.00
2013-6-8,66.5,57.7,50.0,53.3,49.2,46.1,90,74,56,30.18,30.09,4,1,11,0.00
2013-6-9,68.9,57.5,49.6,50.2,47.6,44.0,92,72,45,30.11,30.02,5,1,13,0.00
2013-6-10,71.0,58.0,43.2,53.2,47.2,41.0,95,70,41,30.04,29.86,6,1,16,0.00
2013-6-11,64.4,54.8,48.8,54.5,49.2,46.0,94,82,54,30.09,29.92,7,1,16,0.09
2013-6-12,66.8,56.7,48.7,51.0,48.8,45.0,96,77,48,30.13,30.08,7,1,16,0.05
2013-6-13,65.4,56.8,51.8,54.0,50.9,46.6,96,82,56,30.20,30.12,5,1,12,0.05
2013-6-14,70.1,57.9,50.3,53.4,49.7,47.7,92,76,51,30.22,30.05,6,1,14,0.00
2013-6-15,77.6,58.7,42.8,58.0,51.3,41.0,97,79,46,30.05,29.89,6,-202,12,0.00
2013-6-16,72.8,60.2,49.2,61.0,53.7,47.8,97,81,56,30.07,29.97,5,0,12,0.08
2013-6-17,77.9,62.4,49.0,59.0,53.2,48.0,97,76,39,30.08,29.86,5,1,0,0.16
2013-6-18,74.5,61.6,52.6,57.0,52.6,44.0,97,75,37,29.95,29.85,6,1,0,0.00
2013-6-19,69.3,58.1,54.0,58.0,52.9,50.0,95,84,53,29.99,29.89,11,1,0,0.27
2013-6-20,57.0,54.0,52.5,54.3,52.5,51.4,96,95,83,30.09,29.94,0,0,3,1.42
2013-6-21,70.4,57.9,52.2,58.0,53.6,50.9,97,86,57,30.15,30.09,2,0,7,0.02
2013-6-22,79.0,62.7,48.0,59.8,52.8,46.6,97,74,41,30.11,29.83,5,1,12,0.00
2013-6-23,70.1,63.1,54.8,64.0,59.0,53.1,96,87,68,29.83,29.57,2,0,6,0.02
2013-6-24,66.4,60.7,56.6,60.7,57.6,55.1,97,90,69,29.68,29.56,8,0,20,0.37
2013-6-25,70.3,58.8,54.8,65.0,56.6,53.1,97,93,71,29.85,29.66,7,0,5,0.72
2013-6-26,72.5,61.8,54.1,65.1,57.9,53.0,98,88,60,30.07,29.83,7,1,18,0.05
2013-6-27,70.8,63.6,57.8,65.2,61.0,56.7,97,91,76,30.18,30.03,1,0,7,0.10
2013-6-28,88.5,70.5,58.6,73.5,63.1,57.5,97,79,44,30.18,30.01,4,0,11,0.00
2013-6-29,84.8,71.2,61.1,67.7,62.8,59.4,95,77,50,30.08,29.97,4,1,11,0.00
2013-6-30,92.2,73.2,56.9,72.6,64.0,55.5,97,76,49,30.00,29.83,5,1,13,0.00
2013-7-1,84.7,71.1,59.6,69.2,61.7,56.8,95,74,53,30.01,29.89,6,1,14,0.00
2013-7-2,79.8,67.2,56.9,64.3,57.0,52.4,92,72,43,30.09,30.01,5,1,12,0.00
2013-7-3,76.7,62.7,51.7,58.0,52.4,42.2,90,71,36,30.14,30.03,6,1,19,0.00
2013-7-4,73.8,61.8,53.7,58.5,52.9,49.3,90,74,49,30.10,30.00,4,1,11,0.00
2013-7-5,76.3,62.0,50.7,59.6,54.1,48.6,95,77,49,30.02,29.93,3,0,9,0.00
2013-7-6,79.5,64.0,50.3,62.2,55.6,48.6,97,77,49,29.96,29.84,6,1,15,0.00
2013-7-7,79.5,64.8,52.6,60.2,55.6,50.6,95,75,43,29.92,29.85,5,1,13,0.00
2013-7-8,79.6,65.3,52.9,61.7,57.3,51.0,95,78,50,30.07,29.92,6,1,12,0.00
2013-7-9,82.3,66.1,52.3,66.2,57.4,50.6,97,76,51,30.09,29.99,7,1,12,0.00
2013-7-10,73.7,59.6,54.0,58.0,53.1,49.0,89,80,56,30.03,29.94,8,1,3,0.00
2013-7-11,72.2,61.3,51.1,53.1,49.7,46.6,85,67,45,30.06,29.98,6,0,13,0.00
2013-7-12,70.2,57.1,46.3,56.1,49.9,44.1,93,78,55,30.09,30.00,5,1,11,0.00
2013-7-13,77.7,60.7,43.9,57.4,49.7,42.0,96,71,39,30.19,30.08,5,1,13,0.00
2013-7-14,81.3,62.5,45.4,57.9,50.3,43.5,96,69,36,30.12,29.98,5,1,13,0.00
2013-7-15,82.2,63.3,45.6,58.0,50.8,43.5,95,68,36,30.04,29.88,5,1,16,0.00
2013-7-16,87.9,67.1,49.6,63.3,55.1,47.7,96,69,34,29.89,29.78,4,0,10,0.00
2013-7-17,70.5,65.3,60.6,60.9,58.7,56.5,95,80,65,30.17,29.85,6,2,17,0.02
2013-7-18,77.0,65.0,57.2,61.0,56.5,53.2,89,75,54,30.21,30.10,5,1,13,0.00
2013-7-19,78.7,63.0,50.4,62.2,56.0,48.6,96,80,56,30.16,30.02,5,1,13,0.00
2013-7-20,78.2,63.1,52.6,61.9,56.6,50.5,96,81,56,30.07,29.94,4,1,9,0.00
2013-7-21,80.2,62.6,50.5,64.9,56.7,48.6,96,83,55,29.97,29.88,4,0,11,0.00
2013-7-22,79.3,64.3,54.2,64.0,57.7,52.2,96,81,53,30.04,29.92,3,1,10,0.00
2013-7-23,85.1,65.7,50.7,64.9,56.6,49.0,96,76,42,30.05,29.94,4,1,11,0.00
2013-7-24,81.8,65.0,49.8,60.2,54.9,48.1,96,73,46,30.03,29.98,7,1,15,0.00
2013-7-25,83.5,59.5,48.3,61.0,52.5,46.4,96,80,40,30.08,30.02,7,1,11,0.00
2013-7-26,85.1,64.5,47.4,59.0,51.6,46.0,96,68,33,30.13,30.07,10,1,0,0.00
2013-7-27,79.4,62.6,46.8,59.0,52.1,45.0,95,72,42,30.14,29.97,7,1,0,0.00
2013-7-28,74.1,60.4,47.2,58.0,53.0,45.0,96,78,54,30.00,29.93,8,2,0,0.00
2013-7-29,77.7,66.9,56.5,59.1,55.9,53.0,90,69,48,29.99,29.92,5,1,14,0.00
2013-7-30,79.3,63.8,50.7,60.9,55.7,49.0,96,77,50,30.11,29.98,4,1,12,0.00
2013-7-31,73.0,60.7,52.8,62.0,57.0,50.8,96,88,65,30.11,29.96,5,1,12,0.06
2013-8-1,64.1,60.4,56.9,59.1,57.0,54.9,96,89,80,30.05,30.01,3,0,11,0.00
2013-8-2,61.0,58.9,57.3,58.1,56.9,54.6,97,93,84,30.12,30.04,2,0,10,0.72
2013-8-3,73.4,63.9,58.7,63.1,59.2,56.6,97,86,62,30.12,30.03,5,1,11,0.01
2013-8-4,82.2,66.4,55.4,67.3,59.4,54.0,96,80,54,30.05,29.92,4,1,11,0.00
2013-8-5,83.6,66.5,52.8,64.9,57.8,51.4,97,76,47,30.00,29.91,5,1,13,0.00
2013-8-6,84.5,65.5,49.4,61.9,54.7,47.7,97,72,38,29.98,29.89,4,1,11,0.00
2013-8-7,84.0,66.1,51.0,64.1,55.5,49.3,97,73,40,29.99,29.92,5,1,14,0.00
2013-8-8,79.2,65.0,54.6,62.5,57.0,52.9,96,77,51,30.01,29.93,8,1,16,0.00
2013-8-9,81.9,65.4,51.4,62.3,56.6,49.4,95,75,49,29.95,29.81,5,1,12,0.00
2013-8-10,79.9,67.7,61.0,65.2,61.5,58.3,96,82,58,29.99,29.83,6,1,14,0.10
2013-8-11,75.6,64.6,57.3,63.8,58.5,54.0,96,82,59,30.04,29.97,3,0,9,0.04
2013-8-12,77.9,65.3,56.9,62.0,56.7,53.7,90,75,50,30.05,29.98,9,1,12,0.00
2013-8-13,82.8,66.2,54.9,61.7,56.7,52.7,95,74,45,30.08,29.91,5,1,13,0.00
2013-8-14,84.3,67.1,52.1,64.0,58.8,50.4,97,78,43,29.94,29.88,5,1,13,0.01
2013-8-15,70.2,65.8,62.7,66.2,63.8,61.5,97,93,79,29.98,29.90,3,0,8,0.13
2013-8-16,86.3,70.7,63.4,65.6,62.4,56.5,98,78,38,29.98,29.92,7,1,13,0.00
2013-8-17,78.1,66.2,59.0,64.9,59.5,56.1,95,80,57,30.06,29.98,3,0,10,0.00
2013-8-18,75.5,64.0,56.3,60.9,57.0,54.1,94,79,58,30.10,30.05,6,1,14,0.00
2013-8-19,80.2,65.1,57.6,62.0,55.9,50.6,92,74,50,30.11,30.04,6,1,14,0.00
2013-8-20,78.4,63.3,52.1,58.1,53.4,49.9,95,73,44,30.15,30.05,4,1,15,0.00
2013-8-21,83.0,62.8,46.5,61.3,52.6,44.8,97,73,42,30.08,29.91,4,1,12,0.00
2013-8-22,85.0,65.7,49.9,62.2,56.2,48.1,97,74,42,29.94,29.77,5,1,12,0.00
2013-8-23,76.5,64.6,57.8,61.0,58.0,56.1,94,80,56,29.88,29.80,5,1,15,0.00
2013-8-24,73.8,62.4,54.9,65.3,58.6,53.0,96,88,55,29.91,29.83,2,0,4,0.12
2013-8-25,71.3,61.7,48.2,60.1,56.1,47.0,97,83,61,29.93,29.85,4,0,10,0.00
2013-8-26,76.3,64.0,56.8,61.0,57.7,52.8,96,81,51,29.94,29.83,17,1,20,0.01
2013-8-27,81.2,66.8,58.6,64.3,59.4,56.9,95,79,51,29.94,29.77,4,1,13,0.00
2013-8-28,81.5,67.3,59.3,68.7,61.5,57.1,97,83,51,29.87,29.80,4,0,10,0.05
2013-8-29,73.6,65.0,62.1,68.1,63.1,60.4,97,94,76,29.99,29.83,6,0,20,0.53
2013-8-30,79.4,65.7,56.7,62.7,58.8,53.8,98,81,43,30.14,29.99,6,1,13,0.00
2013-8-31,83.8,63.3,48.7,64.3,56.2,47.3,97,80,48,30.07,29.82,5,1,12,0.00
2013-9-1,83.7,65.2,52.6,67.8,58.4,51.2,97,81,49,29.87,29.77,3,1,10,0.00
2013-9-2,81.2,66.0,54.2,63.3,58.0,52.8,97,78,47,29.93,29.83,5,1,12,0.00
2013-9-3,73.8,63.2,57.6,66.3,60.5,56.0,97,91,71,30.01,29.91,3,0,6,0.25
2013-9-4,69.1,61.7,56.1,64.0,59.4,55.0,97,92,80,30.03,29.99,7,0,0,0.00
2013-9-5,67.1,61.6,56.2,63.0,59.3,55.0,98,92,84,30.03,29.90,8,0,6,0.30
2013-9-6,72.8,63.7,59.5,67.6,61.3,58.6,98,92,76,30.09,29.93,4,0,10,1.50
2013-9-7,74.0,64.4,57.6,63.5,60.3,56.1,97,88,62,30.09,30.00,6,1,15,0.04
2013-9-8,78.5,63.7,55.5,65.4,59.0,54.3,97,86,61,30.09,30.00,4,1,9,0.01
2013-9-9,77.7,63.3,55.3,64.6,58.8,54.2,97,86,61,30.05,29.95,4,1,10,0.00
2013-9-10,80.5,63.8,54.6,68.1,59.2,53.2,97,86,59,29.98,29.86,3,0,7,0.00
2013-9-11,92.8,69.0,52.9,72.0,61.4,51.8,98,80,37,29.93,29.85,3,0,9,0.00
2013-9-12,79.7,64.0,54.9,66.0,59.1,53.8,97,85,58,29.97,29.88,6,1,12,0.00
2013-9-13,64.2,60.3,54.6,61.5,58.4,53.2,97,93,89,29.95,29.86,2,0,7,0.00
2013-9-14,66.0,63.0,61.1,62.0,60.9,60.0,96,93,86,29.87,29.72,4,0,0,0.01
2013-9-15,63.7,61.7,57.8,62.0,60.2,57.0,98,95,91,29.79,29.69,4,0,10,0.24
2013-9-16,62.9,59.6,55.3,61.4,58.3,54.3,97,95,91,29.92,29.79,4,0,11,0.28
2013-9-17,59.7,56.6,54.5,56.1,54.6,53.1,97,93,82,29.93,29.85,2,0,10,0.02
2013-9-18,69.8,57.3,49.2,60.3,53.6,47.8,98,88,58,30.06,29.92,2,0,7,0.09
2013-9-19,81.7,53.2,42.0,61.0,48.8,40.9,98,87,38,30.04,29.75,4,0,5,0.00
2013-9-20,77.3,58.3,45.2,58.9,51.5,43.9,97,81,43,29.75,29.56,8,1,18,0.03
2013-9-21,71.3,60.3,55.8,57.0,55.0,51.1,96,84,54,29.69,29.62,5,1,11,0.00
2013-9-22,59.5,57.0,53.9,56.2,53.4,49.7,95,88,74,29.69,29.55,6,1,17,0.16
2013-9-23,54.9,52.2,50.1,53.1,50.9,49.0,96,95,93,29.95,29.90,1,0,4,0.14
2013-9-24,61.2,52.4,49.1,56.7,50.7,48.0,97,94,76,29.95,29.82,2,0,10,0.56
2013-9-25,55.7,51.0,44.1,51.8,48.8,42.8,97,92,81,30.02,29.84,3,0,10,0.02
2013-9-26,64.1,49.4,39.9,53.1,45.5,38.9,97,88,61,30.12,30.02,4,0,11,0.00
2013-9-27,53.3,50.1,42.4,52.4,48.8,40.8,97,95,90,30.11,29.82,0,0,7,0.14
2013-9-28,58.6,53.5,50.8,58.0,52.4,49.7,98,96,93,29.82,29.33,18,1,18,0.92
2013-9-29,53.6,51.7,50.3,51.1,49.7,47.9,97,93,84,29.54,29.15,13,3,26,0.26
2013-9-30,57.9,51.8,48.6,52.4,48.2,45.5,94,87,77,29.89,29.38,9,2,26,0.00
2013-10-1,56.9,50.5,46.9,48.9,46.1,43.3,94,85,68,30.09,29.89,4,1,15,0.05
2013-10-2,52.1,49.9,47.9,50.3,48.1,46.5,96,94,88,30.16,30.04,1,0,7,0.26
2013-10-3,60.6,50.4,44.7,49.5,46.7,43.1,97,88,63,30.44,30.16,3,0,9,0.01
2013-10-4,66.3,49.7,37.3,54.2,44.7,36.1,97,85,49,30.47,30.34,3,0,7,0.00
2013-10-5,72.6,52.2,40.6,55.2,46.4,39.5,97,83,44,30.35,30.12,3,0,9,0.00
2013-10-6,78.4,54.9,39.7,53.9,45.4,38.6,98,76,26,30.12,29.86,9,1,19,0.00
2013-10-7,56.3,51.9,50.0,52.7,50.3,48.6,97,94,80,30.00,29.86,4,0,16,0.74
2013-10-8,59.0,49.5,39.4,50.4,46.5,38.1,97,90,61,30.07,29.94,4,0,12,0.25
2013-10-9,60.2,42.6,32.5,49.0,39.4,32.0,97,89,56,30.12,29.95,6,0,0,0.00
2013-10-10,57.8,48.6,42.9,50.0,45.9,42.0,98,90,70,30.05,29.93,5,0,0,0.00
2013-10-11,55.7,49.2,44.6,50.6,46.8,43.3,97,92,80,30.12,30.05,4,0,9,0.00
2013-10-12,57.9,49.1,41.1,50.2,46.2,39.4,97,90,72,30.20,30.05,5,0,12,0.03
2013-10-13,57.7,45.9,38.8,49.9,43.2,37.5,97,91,70,30.35,30.20,3,0,6,0.00
2013-10-14,60.5,44.4,33.3,49.3,41.4,32.0,99,90,65,30.41,30.35,6,0,4,0.00
2013-10-15,62.7,45.6,34.2,51.2,42.1,33.1,98,89,60,30.38,30.16,3,0,7,0.00
2013-10-16,52.2,47.1,41.6,48.8,45.4,40.3,97,94,87,30.19,30.14,1,0,5,0.00
2013-10-17,60.4,47.9,41.3,52.0,45.4,40.0,95,91,69,30.26,30.19,4,0,1,0.00
2013-10-18,60.2,44.9,36.3,51.8,42.3,35.3,97,91,72,30.24,30.13,4,0,7,0.00
2013-10-19,49.5,44.3,39.6,47.6,43.0,38.6,97,95,92,30.19,30.13,1,0,4,0.00
2013-10-20,48.8,46.3,44.3,46.9,45.1,43.2,97,95,93,30.19,30.14,1,0,5,0.01
2013-10-21,49.8,46.6,44.2,48.0,45.6,43.0,97,96,93,30.16,30.09,1,0,1,0.00
2013-10-22,50.6,47.2,43.7,48.8,46.2,42.9,97,96,93,30.11,30.02,1,0,4,0.00
2013-10-23,61.3,46.8,39.2,54.0,44.9,38.4,98,94,74,30.04,29.96,4,0,9,0.01
2013-10-24,54.4,41.2,0.0,49.0,41.5,36.5,98,94,83,30.11,30.00,5,0,3,0.00
2013-10-25,50.1,39.8,0.0,49.0,46.6,45.0,97,79,91,30.30,0.00,2,0,0,655.35
2013-10-26,51.5,36.3,0.0,48.0,46.3,45.0,97,69,83,30.32,0.00,2,0,0,0.00
2013-10-27,59.0,40.7,0.0,51.0,44.7,37.9,97,82,74,30.18,0.00,3,0,1,0.31
2013-10-28,62.7,43.2,33.4,46.3,37.3,32.5,98,83,39,29.95,29.86,5,0,13,0.00
2013-10-29,58.6,39.1,29.2,42.9,34.3,27.9,97,85,49,30.03,29.94,4,0,11,0.00
2013-10-30,54.7,43.1,30.5,47.0,39.2,29.1,97,87,64,30.12,30.03,3,0,11,0.01
2013-10-31,51.4,48.9,46.7,50.6,47.7,44.1,97,96,85,30.24,30.08,1,0,6,0.20
2013-11-1,58.6,51.9,47.8,55.6,50.6,47.0,98,95,84,30.26,29.81,2,0,6,0.01
2013-11-2,51.0,47.1,42.0,50.2,45.9,40.9,98,95,85,29.87,29.45,14,2,33,1.42
2013-11-3,50.1,41.0,31.9,45.9,39.7,31.0,98,95,83,30.10,29.86,4,0,8,0.26
2013-11-4,46.8,36.9,28.5,42.0,35.1,28.0,98,93,73,30.19,30.06,1,0,0,0.10
2013-11-5,48.8,44.2,40.1,48.0,43.5,39.0,98,97,96,30.25,30.01,3,0,0,0.15
2013-11-6,50.2,44.7,38.0,48.0,43.8,37.0,98,96,91,30.31,30.01,1,0,0,0.05
2013-11-7,48.2,47.0,46.3,47.7,46.2,45.0,98,97,95,30.01,29.69,10,1,12,0.07
2013-11-8,52.8,45.9,39.7,48.2,44.4,38.8,98,95,77,30.15,29.95,5,0,13,0.06
2013-11-9,50.8,42.3,33.5,46.8,40.7,32.7,98,94,82,30.15,30.05,1,0,3,0.05
2013-11-10,47.9,45.2,43.3,47.1,44.4,42.6,98,97,96,30.14,30.08,0,0,3,0.13
2013-11-11,56.0,45.2,38.2,54.0,44.4,38.0,99,97,91,30.15,29.99,2,0,0,0.00
2013-11-12,57.2,49.6,41.4,54.0,48.6,41.0,99,96,88,30.34,30.01,8,0,0,0.10
2013-11-13,56.7,51.1,47.9,51.0,48.5,47.0,97,91,74,30.41,30.30,10,1,0,0.00
2013-11-14,48.5,44.5,40.8,47.0,43.5,39.7,97,96,94,30.29,30.04,2,0,1,0.09
2013-11-15,45.0,43.5,42.2,44.5,42.8,39.4,98,97,85,30.05,29.30,127,1,20,0.81
2013-11-16,45.1,41.1,38.5,43.7,40.0,37.6,98,96,86,29.75,29.34,6,0,19,0.57
2013-11-17,49.6,43.8,33.0,46.4,42.3,32.2,98,94,86,29.88,29.76,9,1,28,0.02
2013-11-18,49.6,48.1,45.7,49.1,47.1,44.2,98,97,93,29.88,29.53,2,0,9,0.25
2013-11-19,50.9,42.4,34.4,50.4,37.7,24.5,98,84,59,30.06,29.51,8,1,20,0.34
2013-11-20,43.7,31.1,25.5,32.4,27.5,23.9,97,87,55,30.50,30.06,3,0,9,0.00
2013-11-21,42.7,28.3,21.4,32.0,24.8,19.7,96,88,51,30.66,30.50,2,0,6,0.00
2013-11-22,46.0,29.1,21.5,33.0,25.7,19.8,96,88,51,30.65,30.45,1,0,6,0.01
2013-11-23,47.9,31.9,24.3,38.1,29.3,23.1,97,90,62,30.45,30.20,2,0,7,0.00
2013-11-24,49.0,33.5,26.1,41.0,31.1,24.8,97,91,73,30.25,30.16,2,0,9,0.00
2013-11-25,52.2,35.0,28.2,43.0,32.9,27.0,98,92,68,30.31,30.25,1,0,0,0.00
2013-11-26,52.9,38.7,27.1,44.0,36.4,26.0,97,92,64,30.26,30.09,6,0,6,0.00
2013-11-27,52.6,40.6,31.3,46.0,38.2,30.0,97,91,73,30.09,29.94,2,0,5,0.00
2013-11-28,55.1,38.8,29.2,41.7,35.5,28.0,98,89,55,30.17,30.01,3,0,4,0.01
2013-11-29,47.6,41.6,34.7,43.5,39.8,33.6,97,93,83,30.31,30.16,3,0,10,0.01
2013-11-30,49.1,46.6,44.2,47.5,44.6,43.1,97,93,81,30.31,30.07,1,0,7,0.16
2013-12-1,50.5,48.0,0.0,50.0,47.9,38.0,98,97,93,30.06,29.73,4,0,17,0.88
2013-12-2,39.2,33.6,0.0,38.0,35.4,33.0,97,89,92,30.04,29.80,3,0,0,0.06
2013-12-3,34.4,29.5,0.0,33.0,29.1,25.7,97,93,92,30.30,0.00,2,0,2,0.00
2013-12-4,35.4,27.6,22.2,30.3,25.6,20.6,97,92,73,30.34,30.29,1,0,4,0.01
2013-12-5,32.4,24.2,18.5,26.3,21.5,16.8,95,90,71,30.32,30.19,3,0,7,0.00
2013-12-6,31.5,20.9,0.0,21.8,15.5,11.0,94,79,46,30.25,0.00,1,0,5,655.35
2013-12-7,28.2,16.6,0.0,16.6,10.4,6.0,92,72,46,30.43,30.25,4,0,10,0.00
2013-12-8,31.6,19.9,10.3,20.9,14.9,7.7,91,82,53,30.57,30.42,2,0,6,0.00
2013-12-9,29.9,23.3,14.0,27.0,20.3,11.9,93,88,78,30.59,30.48,1,0,4,0.00
2013-12-10,36.2,31.5,0.0,34.0,30.2,27.0,95,92,89,30.49,0.00,0,0,0,0.00
2013-12-11,40.2,30.9,25.4,35.0,29.1,24.0,97,93,78,30.41,30.16,2,0,0,0.00
2013-12-12,42.2,33.2,0.0,40.0,32.8,26.0,97,91,77,30.15,30.03,5,0,0,0.07
2013-12-13,44.6,42.0,0.0,44.1,41.7,38.0,98,97,97,30.40,30.12,0,0,3,0.04
2013-12-14,45.6,42.6,37.4,44.6,42.1,36.9,98,98,95,30.42,30.30,1,0,7,0.00
2013-12-15,47.0,45.4,40.9,47.0,44.7,40.0,98,97,94,30.44,30.31,1,0,8,0.08
2013-12-16,45.0,36.7,30.4,45.0,36.2,30.0,98,97,96,30.49,30.25,0,0,0,0.00
2013-12-17,39.4,35.0,29.8,39.0,34.5,29.0,98,98,97,30.25,30.10,1,0,0,0.01
2013-12-18,44.0,36.3,26.3,40.0,34.9,25.0,98,95,78,30.14,30.01,2,0,0,0.01
2013-12-19,34.8,28.0,21.7,32.0,26.7,21.0,97,95,89,30.34,30.15,1,0,0,0.00
2013-12-20,34.4,33.1,29.1,33.9,32.4,28.0,98,97,96,30.20,29.70,2,0,3,0.18
2013-12-21,39.9,35.6,33.0,39.4,35.1,32.5,98,98,98,30.16,29.83,2,0,4,0.88
2013-12-22,46.2,41.5,36.4,45.9,41.1,35.8,99,99,98,30.28,30.16,0,0,3,0.93
2013-12-23,48.3,45.2,39.6,48.0,44.0,38.3,99,96,81,30.51,30.11,7,1,19,0.58
2013-12-24,45.7,38.0,28.8,42.9,36.7,27.9,98,95,87,30.61,30.50,2,0,6,0.04
2013-12-25,42.4,32.7,26.3,38.5,31.5,25.3,98,95,83,30.53,30.38,1,0,5,0.01
2013-12-26,47.0,36.3,30.3,42.2,34.7,29.5,98,94,78,30.39,30.20,3,0,5,0.00
2013-12-27,40.9,35.5,29.9,40.4,34.9,29.1,98,98,97,30.36,30.09,1,0,4,0.12
2013-12-28,44.7,39.5,34.6,44.2,39.0,33.8,99,98,97,30.51,30.35,0,0,3,0.00
2013-12-29,39.9,37.4,35.7,39.2,36.9,35.2,98,98,98,30.47,30.30,1,0,4,0.01
2013-12-30,42.0,39.5,34.0,41.7,39.1,34.0,99,98,98,30.31,30.10,3,0,3,0.04
2013-12-31,45.2,42.3,38.8,44.8,41.8,38.3,99,98,98,30.37,30.18,0,0,2,0.05
2014-1-1,43.3,37.6,31.1,42.8,37.0,30.6,99,98,96,30.40,30.23,1,0,3,0.01
2014-1-2,48.0,42.9,38.9,45.0,42.1,38.0,99,97,86,30.23,29.88,5,1,15,0.44